Location: Pacheco
(37.9835°N, 122.0752°W)
Time: 14:14:37
(UTC+00:00)

Cosmos 1766 - Visible Passes

Search period start: 12 July 2024 00:00
Search period end: 22 July 2024 00:00
Orbit: 484 x 501 km, 82.5° (Epoch: 11 July)

Date Brightness Start Highest point End Pass type
(mag) Time Alt. Az. Time Alt. Az. Time Alt. Az.
16 Jul 5.9 12:10:22 10° SE 12:13:03 19° E 12:15:45 10° NE visible
17 Jul 6.2 11:49:13 10° ESE 11:50:54 13° E 11:52:35 10° ENE visible
20 Jul 3.7 12:15:06 10° S 12:18:46 60° E 12:22:26 10° NNE visible
21 Jul 4.6 11:53:00 10° SSE 11:56:27 37° E 11:59:54 10° NNE visible
